DateTimeUTC,F1_A11,F1_S11,BsB_S11,BsG_S11,BsR_S11,BbsB_S11,BbsG_S11,BbsR_S11,BaB_A11,BaG_A11,BaR_A11,Tu_S11,T_S11,Uu_S11,U_S11,P_S11,T1_A11
2021-07-08T16:00:00Z,00000200,20000000,,,,,,,0000.07,0000.34,0000.51,18.4,24.9,03.3,02.2,0659.1,31.0
2021-07-08T16:01:00Z,00000200,20000000,,,,,,,-000.45,-000.23,-000.38,18.3,24.9,03.3,02.2,0659.1,31.0
2021-07-08T16:02:00Z,00000200,20000000,,,,,,,0000.15,-000.19,0000.23,18.3,24.9,03.3,02.2,0659.1,31.0
2021-07-08T16:03:00Z,00000200,60000000,,,,,,,0000.08,0000.30,-000.08,18.3,24.9,03.3,02.2,0659.1,31.0
2021-07-08T16:04:00Z,00000200,40000000,0000.38,0000.34,0000.04,0000.18,-000.21,-000.08,0000.37,-000.02,0000.18,18.3,24.7,03.6,02.4,0660.2,31.0
2021-07-08T16:05:00Z,00000200,00000000,0000.22,0000.05,-000.08,0000.63,0000.19,0000.11,0000.25,0000.26,0000.28,18.3,24.6,03.6,02.5,0660.2,31.0
2021-07-08T16:06:00Z,00000200,00000000,0000.38,0000.18,0000.02,-000.11,-000.06,0000.17,-000.43,-000.15,-000.29,18.4,24.6,03.7,02.5,0660.0,31.0
2021-07-08T16:07:00Z,00000200,00000000,0000.60,0000.07,0000.18,0000.44,-000.07,0000.29,0000.19,0000.21,0000.16,18.4,24.7,03.5,02.4,0660.1,31.0
2021-07-08T16:08:00Z,00000200,00000000,-000.00,0000.26,-000.03,-000.25,0000.11,-000.08,-000.15,-000.24,0000.03,18.5,24.7,03.5,02.4,0660.0,31.0
2021-07-08T16:09:00Z,00000200,00000000,-000.00,0000.12,0000.13,0000.49,0000.17,-000.09,0000.24,0000.08,-000.25,18.6,24.8,03.4,02.3,0660.1,31.0
2021-07-08T16:10:00Z,00000200,00000000,-000.43,0000.31,0000.15,0000.18,0000.07,0000.13,-000.31,0000.03,0000.20,18.6,24.8,03.4,02.3,0660.0,31.0
2021-07-08T16:11:00Z,00000200,00000000,0000.37,0000.50,-000.03,0000.29,0000.29,0000.16,0000.31,-000.11,-000.17,18.6,24.8,03.4,02.3,0660.1,31.0
2021-07-08T16:12:00Z,00000200,00000000,-000.05,0000.32,0000.40,0000.00,0000.33,-000.08,-000.36,-000.02,-000.17,18.5,24.7,03.4,02.3,0660.1,31.0
2021-07-08T16:13:00Z,00000200,00000000,0000.09,0000.14,0000.03,0000.36,-000.04,0000.39,0000.37,0000.03,0000.59,18.5,24.7,03.4,02.3,0660.4,31.0
2021-07-08T16:14:00Z,00000200,00000000,0000.06,0000.31,0000.28,0000.79,-000.11,0000.06,-000.12,0000.06,-000.37,18.4,24.6,03.5,02.4,0660.2,31.0
2021-07-08T16:15:00Z,00000200,00000000,0000.34,0000.18,0000.23,0000.36,-000.23,0000.19,-000.03,-000.28,0000.07,18.4,24.6,03.4,02.3,0660.4,31.0
2021-07-08T16:16:00Z,00000200,00000000,-000.07,0000.26,0000.20,0000.37,-000.16,0000.46,0000.22,0000.25,-000.00,18.3,24.6,03.6,02.5,0660.4,30.9
2021-07-08T16:17:00Z,00000200,00000000,0001.08,0000.18,0000.23,0000.01,0000.03,0000.13,-000.36,0000.26,0000.40,18.3,24.6,03.6,02.5,0660.4,30.9
2021-07-08T16:18:00Z,00000200,00000000,0000.68,0000.44,0000.12,0000.50,0000.01,0000.20,0000.18,-000.34,-000.65,18.2,24.5,03.6,02.4,0660.2,30.9
2021-07-08T16:19:00Z,00000200,00000000,0000.24,0000.71,0000.19,0000.01,0000.11,0000.27,0000.14,0000.11,0000.40,18.2,24.5,03.5,02.4,0660.2,30.9
2021-07-08T16:20:00Z,00000200,00000000,-000.05,0000.21,0000.05,0000.20,-000.03,-000.28,0000.04,0000.04,0000.15,18.2,24.5,03.5,02.4,0660.3,30.9
2021-07-08T16:21:00Z,00000200,00000000,0000.07,0000.44,-000.06,0000.33,-000.19,0000.25,0000.39,0000.14,0000.08,18.2,24.5,03.7,02.5,0660.2,30.9
2021-07-08T16:22:00Z,00000200,00000000,0000.08,0000.26,0000.20,-000.14,-000.07,0000.25,-000.07,0000.21,0000.05,18.3,24.5,03.7,02.5,0660.3,31.0
2021-07-08T16:23:00Z,00000200,00000000,0001.06,0000.27,0000.15,0000.61,-000.06,0000.00,-000.17,0000.28,-000.07,18.4,24.6,03.7,02.6,0660.3,31.0
2021-07-08T16:24:00Z,00000200,00000000,0000.14,0000.53,0000.36,0000.02,0000.25,0000.43,0000.18,-000.26,0000.21,18.5,24.6,03.6,02.5,0660.4,31.0
2021-07-08T16:25:00Z,00000200,00000000,0000.24,-000.02,0000.13,0000.35,-000.07,0000.18,-000.28,-000.17,-000.24,18.6,24.7,03.5,02.4,0660.4,31.0
2021-07-08T16:26:00Z,00000200,00000000,0000.12,0000.30,0000.05,0000.39,0000.22,0000.31,0000.14,0000.04,0000.19,18.6,24.7,03.5,02.4,0660.3,31.0
2021-07-08T16:27:00Z,00000200,00000000,0000.25,0000.51,0000.27,0000.08,-000.07,0000.36,-000.27,-000.05,-000.43,18.6,24.7,03.5,02.4,0660.3,31.0
2021-07-08T16:28:00Z,00000200,00000000,0001.17,0000.38,0000.03,0000.32,-000.10,0000.15,0000.07,0000.06,-000.06,18.5,24.6,03.5,02.4,0660.3,31.0
2021-07-08T16:29:00Z,00000200,00000000,0000.31,0000.16,0000.17,0000.19,-000.03,0000.17,-000.15,-000.38,0000.10,18.4,24.6,03.4,02.4,0660.3,31.0
2021-07-08T16:30:00Z,00000200,00000000,0000.41,0000.19,0000.16,0000.28,0000.41,-000.06,0000.29,0000.48,-000.05,18.4,24.6,03.5,02.4,0660.4,31.0
2021-07-08T16:31:00Z,00000200,00000000,-000.17,0000.33,-000.01,0001.04,0000.26,0000.36,0000.18,0000.11,0000.45,18.3,24.5,03.5,02.4,0660.5,30.9
2021-07-08T16:32:00Z,00000200,00000000,-000.06,-000.13,0000.39,0000.38,-000.01,0000.26,-000.00,-000.12,-000.04,18.3,24.5,03.8,02.6,0660.6,30.9
2021-07-08T16:33:00Z,00000200,00000000,-000.03,0000.13,-000.06,0000.03,-000.30,-000.06,0000.29,0000.07,-000.15,18.2,24.5,03.7,02.5,0660.5,30.9
2021-07-08T16:34:00Z,00000200,00000000,0000.37,0000.14,0000.24,0000.72,0000.14,0000.55,0000.06,0000.19,0000.09,18.2,24.5,03.7,02.5,0660.6,30.9
2021-07-08T16:35:00Z,00000200,00000000,0000.25,0000.06,0000.18,0000.54,-000.22,-000.08,0000.00,0000.11,0000.15,18.2,24.5,03.8,02.6,0660.7,30.9
2021-07-08T16:36:00Z,00000200,00000000,0000.61,0000.05,0000.07,0000.79,-000.06,0000.36,0000.04,0000.12,0000.22,18.3,24.5,04.0,02.7,0660.5,30.9
2021-07-08T16:37:00Z,00000200,00000000,-000.18,0000.53,-000.02,0000.34,-000.07,0000.11,0000.15,-000.16,-000.23,18.3,24.5,03.9,02.7,0660.5,31.0
2021-07-08T16:38:00Z,00000200,00000000,0000.20,0000.27,0000.34,0000.35,-000.13,0000.21,0000.21,0000.39,0000.40,18.4,24.6,03.8,02.6,0660.8,31.0
2021-07-08T16:39:00Z,00000200,00000000,0000.54,0000.16,0000.12,0000.01,0000.18,0000.27,-000.16,0000.03,-000.04,18.5,24.6,03.9,02.7,0660.7,31.0
2021-07-08T16:40:00Z,00000200,00000000,0000.05,0000.22,-000.02,0000.18,-000.09,0000.24,0000.03,0000.10,-000.13,18.6,24.6,03.9,02.7,0660.5,31.0
2021-07-08T16:41:00Z,00000200,00000000,0000.07,0000.60,-000.01,-000.21,0000.19,0000.04,0000.16,-000.33,0000.02,18.6,24.7,03.9,02.7,0660.7,31.0
2021-07-08T16:42:00Z,00000200,00000000,0000.32,0000.36,0000.25,0000.26,0000.05,-000.06,-000.35,0000.02,-000.02,18.7,24.7,03.8,02.6,0660.6,31.0
2021-07-08T16:43:00Z,00000200,00000000,0000.42,0000.51,0000.06,0000.45,-000.10,0000.12,0000.27,0000.09,-000.25,18.6,24.7,03.6,02.5,0660.6,31.0
2021-07-08T16:44:00Z,00000200,00000000,0000.72,0000.33,0000.22,0000.27,-000.03,0000.25,-000.36,-000.28,-000.20,18.6,24.7,03.7,02.5,0660.6,31.0
2021-07-08T16:45:00Z,00000200,00000000,0000.15,0000.31,0000.12,-000.02,0000.10,0000.68,0000.14,0000.09,0000.51,18.5,24.6,03.7,02.5,0660.7,31.0
2021-07-08T16:46:00Z,00000200,00000000,0000.10,0000.13,0000.19,0000.09,0000.01,0000.31,-000.22,0000.09,-000.40,18.5,24.6,03.7,02.6,0660.7,31.0
2021-07-08T16:47:00Z,00000200,00000000,-000.04,0000.09,0000.29,0000.21,0000.15,0000.36,0000.21,0000.08,0000.32,18.4,24.6,03.8,02.6,0660.9,30.9
2021-07-08T16:48:00Z,00000200,00000000,0000.69,0000.19,0000.06,0000.55,0000.30,0000.00,-000.29,-000.54,-000.27,18.3,24.6,03.8,02.6,0660.8,30.9
2021-07-08T16:49:00Z,00000200,00000000,0000.62,0000.57,0000.32,0000.01,0000.19,0000.02,0000.39,0000.06,0000.02,18.3,24.5,03.8,02.6,0660.8,30.9
2021-07-08T16:50:00Z,00000200,00000000,-000.23,0000.39,0000.20,0000.07,0000.08,0000.23,-000.01,0000.49,0000.35,18.3,24.5,03.9,02.6,0660.6,30.9
2021-07-08T16:51:00Z,00000200,00000000,-000.01,0000.35,-000.00,-000.07,0000.12,0000.35,-000.06,-000.31,-000.08,18.3,24.5,03.7,02.5,0660.6,31.0
2021-07-08T16:52:00Z,00000200,00000000,-000.18,0000.15,0000.10,0000.20,-000.02,-000.02,0000.14,0000.37,-000.07,18.4,24.6,03.7,02.5,0660.7,31.0
2021-07-08T16:53:00Z,00000200,00000000,0000.11,-000.04,0000.03,-000.41,-000.18,0000.54,0000.00,-000.19,0000.01,18.5,24.6,03.7,02.5,0660.5,31.0
2021-07-08T16:54:00Z,00000200,00000000,0000.32,0000.02,0000.08,0000.49,-000.09,0000.02,0000.06,-000.02,0000.00,18.5,24.7,03.6,02.5,0660.6,31.0
2021-07-08T16:55:00Z,00000200,00000000,0000.42,0000.42,0000.11,-000.12,0000.06,0000.29,-000.03,0000.32,0000.01,18.5,24.7,03.7,02.5,0660.7,31.0
2021-07-08T16:56:00Z,00000200,00000000,0000.15,-000.23,-000.15,0000.33,0000.14,-000.20,0000.04,0000.35,0000.26,18.5,24.6,03.7,02.6,0660.9,31.0
2021-07-08T16:57:00Z,00000200,40000000,,,,,,,0000.08,-000.86,-000.12,18.5,24.6,03.8,02.6,0661.2,31.0
2021-07-08T16:58:00Z,00000200,60000000,,,,,,,-000.08,0000.28,-000.22,18.2,24.7,03.7,02.5,0660.0,30.9
2021-07-08T16:59:00Z,00000200,20000000,,,,,,,0000.00,0000.15,0000.22,18.2,24.8,03.6,02.4,0659.9,30.9
